Time,TemperatureF,DewpointF,PressureIn,WindDirection,WindDirectionDegrees,WindSpeedMPH,WindSpeedGustMPH,Humidity,HourlyPrecipIn,Conditions,Clouds,dailyrainin,SoftwareType,DateUTC
2013-01-09 12:22:00,40.0,37.0,30.25,ESE,110,6.0,7.0,88,-99.99,,,-99.99,,2013-01-09 17:22:00,
2013-01-09 12:32:00,40.0,37.0,30.25,ESE,110,6.0,7.0,88,-99.99,,,-99.99,,2013-01-09 17:32:00,
2013-01-09 12:42:00,40.0,37.0,30.25,ESE,110,6.0,7.0,88,-99.99,,,-99.99,,2013-01-09 17:42:00,
2013-01-09 12:52:00,40.0,37.0,30.25,ESE,110,6.0,7.0,88,-99.99,,,-99.99,,2013-01-09 17:52:00,
2013-01-09 13:02:00,42.0,36.0,30.22,SSE,150,7.0,8.0,79,-99.99,,,-99.99,,2013-01-09 18:02:00,
2013-01-09 13:12:00,42.0,36.0,30.21,South,170,7.0,8.0,77,-99.99,,,-99.99,,2013-01-09 18:12:00,
2013-01-09 13:22:00,43.0,36.0,30.20,South,170,8.0,10.0,76,-99.99,,,-99.99,,2013-01-09 18:22:00,
2013-01-09 13:32:00,43.0,36.0,30.20,South,170,8.0,10.0,76,-99.99,,,-99.99,,2013-01-09 18:32:00,
2013-01-09 13:42:00,43.0,36.0,30.21,SSW,210,10.0,11.0,76,-99.99,,,-99.99,,2013-01-09 18:42:00,
2013-01-09 13:52:00,43.0,37.0,30.20,SW,230,7.0,8.0,79,-99.99,,,-99.99,,2013-01-09 18:52:00,
2013-01-09 14:02:00,43.0,37.0,30.20,SW,230,7.0,8.0,79,-99.99,,,-99.99,,2013-01-09 19:02:00,
2013-01-09 14:12:00,43.0,37.0,30.20,WSW,240,7.0,7.0,77,-99.99,,,-99.99,,2013-01-09 19:12:00,
2013-01-09 14:22:00,43.0,37.0,30.21,WSW,250,6.0,7.0,77,-99.99,,,-99.99,,2013-01-09 19:22:00,
2013-01-09 14:32:00,44.0,36.0,30.21,WNW,300,5.0,6.0,76,-99.99,,,-99.99,,2013-01-09 19:32:00,
2013-01-09 14:42:00,44.0,36.0,30.21,WNW,300,5.0,6.0,76,-99.99,,,-99.99,,2013-01-09 19:42:00,
2013-01-09 14:52:00,44.0,35.0,30.20,SW,230,5.0,7.0,70,-99.99,,,-99.99,,2013-01-09 19:52:00,
2013-01-09 15:01:00,44.0,35.0,30.20,SW,230,5.0,7.0,70,-99.99,,,-99.99,,2013-01-09 20:01:00,
2013-01-09 15:11:00,43.0,36.0,30.18,SW,230,7.0,7.0,76,-99.99,,,-99.99,,2013-01-09 20:11:00,
2013-01-09 15:22:00,43.0,36.0,30.17,SW,220,8.0,9.0,75,-99.99,,,-99.99,,2013-01-09 20:22:00,
2013-01-09 15:32:00,43.0,36.0,30.17,SW,220,8.0,9.0,75,-99.99,,,-99.99,,2013-01-09 20:32:00,
2013-01-09 15:42:00,43.0,36.0,30.17,WSW,240,7.0,8.0,75,-99.99,,,-99.99,,2013-01-09 20:42:00,
2013-01-09 15:52:00,43.0,36.0,30.16,SW,230,6.0,7.0,75,-99.99,,,-99.99,,2013-01-09 20:52:00,
2013-01-09 16:02:00,43.0,36.0,30.16,SW,230,6.0,7.0,75,-99.99,,,-99.99,,2013-01-09 21:02:00,
2013-01-09 16:12:00,44.0,37.0,30.14,South,180,7.0,8.0,78,-99.99,,,-99.99,,2013-01-09 21:12:00,
2013-01-09 16:22:00,45.0,39.0,30.12,SSW,200,11.0,13.0,80,-99.99,,,-99.99,,2013-01-09 21:22:00,
2013-01-09 16:32:00,45.0,39.0,30.12,SSW,200,11.0,13.0,80,-99.99,,,-99.99,,2013-01-09 21:32:00,
2013-01-09 16:42:00,45.0,39.0,30.09,South,180,11.0,13.0,80,-99.99,,,-99.99,,2013-01-09 21:42:00,
2013-01-09 16:52:00,45.0,39.0,30.07,South,180,17.0,18.0,78,-99.99,,,-99.99,,2013-01-09 21:52:00,
2013-01-09 17:02:00,45.0,39.0,30.07,South,180,17.0,18.0,78,-99.99,,,-99.99,,2013-01-09 22:02:00,
2013-01-09 17:12:00,46.0,38.0,30.06,SSW,210,18.0,21.0,74,-99.99,,,-99.99,,2013-01-09 22:12:00,
2013-01-09 17:22:00,45.0,39.0,30.08,SW,230,16.0,20.0,77,-99.99,,,-99.99,,2013-01-09 22:22:00,
2013-01-09 17:32:00,45.0,39.0,30.08,SW,230,16.0,20.0,77,-99.99,,,-99.99,,2013-01-09 22:32:00,
2013-01-09 17:42:00,45.0,38.0,30.07,SW,230,16.0,18.0,76,-99.99,,,-99.99,,2013-01-09 22:42:00,
2013-01-09 17:52:00,45.0,39.0,30.07,WSW,250,18.0,22.0,78,-99.99,,,-99.99,,2013-01-09 22:52:00,
2013-01-09 18:02:00,45.0,39.0,30.07,WSW,250,18.0,22.0,78,-99.99,,,-99.99,,2013-01-09 23:02:00,
2013-01-09 18:12:00,45.0,40.0,30.07,WSW,240,23.0,25.0,81,-99.99,,,-99.99,,2013-01-09 23:12:00,
2013-01-09 18:22:00,45.0,40.0,30.08,WSW,250,18.0,21.0,82,-99.99,,,-99.99,,2013-01-09 23:22:00,
2013-01-09 18:32:00,44.0,40.0,30.08,WSW,250,20.0,22.0,82,-99.99,,,-99.99,,2013-01-09 23:32:00,
2013-01-09 18:42:00,44.0,40.0,30.08,WSW,250,20.0,22.0,82,-99.99,,,-99.99,,2013-01-09 23:42:00,
2013-01-09 18:52:00,44.0,40.0,30.08,WSW,250,20.0,22.0,84,-99.99,,,-99.99,,2013-01-09 23:52:00,
2013-01-09 19:02:00,44.0,40.0,30.08,WSW,250,20.0,22.0,84,-99.99,,,-99.99,,2013-01-10 00:02:00,
2013-01-09 19:12:00,44.0,40.0,30.07,WSW,250,21.0,23.0,84,-99.99,,,-99.99,,2013-01-10 00:12:00,
2013-01-09 19:22:00,44.0,40.0,30.07,WSW,250,21.0,23.0,84,-99.99,,,-99.99,,2013-01-10 00:22:00,
2013-01-09 19:32:00,44.0,40.0,30.07,WSW,250,21.0,23.0,84,-99.99,,,-99.99,,2013-01-10 00:32:00,
2013-01-09 19:42:00,44.0,40.0,30.07,WSW,250,21.0,23.0,84,-99.99,,,-99.99,,2013-01-10 00:42:00,